Powrót do katalogu

CARTOSAT 2E

AktywnyNaukaSSO
NORAD 42767·PAYLOAD·🇮🇳 India

Wystrzelony Jun 23, 2017 z Satish Dhawan Space Centre

Loading…

Następne Przeloty (najbliższe 24 godziny)

TLE

ŚwieżeSource: Space-Track

Epoka: Sep 14, 2026, 14:51 UTC

1 42767U 17036C   26257.61904252  .00003235  00000-0  15662-3 0  9990
2 42767  97.4183 315.9006 0003541  23.0744 337.0649 15.19273515511724

Śledź CARTOSAT 2E w czasie rzeczywistym z AllMySat

Download on the App Store